[[{"header":{"parameterUnit":"m.s-1","parameterCategory":2,"la1":30.2992,"la2":30.254,"lo1":-89.0895,"lo2":-89.0443,"dy":0.0025,"dx":0.0025,"nx":19,"ny":19,"refTime":"2026-04-23T03:00:00:Z","depth":"0","parameterNumber":2,"parameterNumberName":"U-component_of_CURRENTS"},"data":[0,0,0,-0.1879,-0.1877,-0.1787,-0.1787,-0.1668,-0.1667,0,0,0,0,0,0,0,0,0,0,0,-0.1904,-0.1903,-0.1879,-0.1877,-0.1787,-0.1787,-0.1669,-0.1667,0,0,0,0,0,0,0,0,0,0,0,-0.1904,-0.1903,-0.1902,-0.1877,-0.1787,-0.1787,-0.1669,-0.1737,0,0,0,0,0,0,0,0,0,0,-0.1824,-0.1844,-0.1903,-0.1902,-0.1876,-0.1788,-0.1787,-0.174,-0.1732,-0.1709,0,-0.169,0,-0.1679,-0.166,-0.1659,0,0,0,-0.1873,-0.185,-0.1832,-0.1902,-0.1876,-0.1788,-0.1827,-0.1736,-0.1727,-0.1699,-0.1688,-0.1684,-0.1677,-0.1659,-0.1658,-0.155,-0.155,0,0,-0.1878,-0.1882,-0.1837,-0.1826,-0.1844,-0.183,-0.1824,-0.1731,-0.1715,-0.1688,-0.1681,-0.1675,-0.1658,-0.1657,-0.155,-0.155,0,0,0,-0.1895,-0.1885,-0.1868,-0.1831,-0.1817,-0.1827,-0.1821,-0.1719,-0.1715,-0.168,-0.1674,-0.1658,-0.1656,-0.1551,-0.155,-0.1577,0,0,0,-0.1898,-0.1895,-0.1871,-0.1871,-0.1818,-0.1766,-0.1811,-0.1721,-0.171,-0.1675,-0.1658,-0.1655,-0.1551,-0.155,-0.1577,-0.159,0,0,0,-0.1909,-0.1896,-0.1885,-0.1871,-0.1836,-0.1768,-0.1757,-0.1718,-0.1707,-0.1659,-0.1655,-0.1551,-0.1551,-0.1577,-0.159,-0.1557,0,0,0,-0.1918,-0.1848,-0.1885,-0.1815,-0.1837,-0.1769,-0.1758,-0.1696,-0.1652,-0.1657,-0.1551,-0.155,-0.1577,-0.159,-0.1558,-0.1375,-0.1358,0,0,-0.1827,-0.1837,-0.1799,-0.183,-0.1774,-0.1781,-0.1722,-0.1663,-0.1636,-0.1582,-0.1579,-0.1577,-0.159,-0.1558,-0.133,-0.1315,0,0,0,-0.177,-0.1754,-0.1738,-0.1724,-0.1699,-0.1703,-0.1658,-0.1643,-0.1597,-0.1607,-0.1553,-0.156,-0.1539,-0.1429,-0.1416,-0.1349,-0.1547,-0.1547,-0.1547,-0.1641,-0.1669,-0.1636,-0.167,-0.1646,-0.1637,-0.1624,-0.16,-0.1574,-0.1561,-0.1564,-0.1535,-0.1417,-0.1406,-0.134,-0.1543,-0.1543,-0.1543,-0.1543,-0.1569,-0.1572,-0.1622,-0.1615,-0.1643,-0.1618,-0.1601,-0.1595,-0.1561,-0.156,-0.1538,-0.144,-0.1394,-0.1328,-0.1544,-0.1544,-0.1544,-0.1544,-0.1544,-0.1529,-0.154,-0.1571,-0.1614,-0.1625,-0.1633,-0.1576,-0.16,-0.1576,-0.1567,-0.1408,-0.1405,-0.136,-0.1543,-0.1543,-0.1543,-0.1543,-0.1543,-0.1543,-0.149,-0.1521,-0.1506,-0.1621,-0.1567,-0.1581,-0.1578,-0.1516,-0.1442,-0.141,-0.1408,-0.1317,-0.1534,-0.155,-0.1542,-0.1542,-0.1542,-0.1542,-0.1542,-0.1411,-0.1456,-0.139,-0.1351,-0.1306,-0.1215,-0.1297,-0.1196,-0.1211,-0.1134,-0.1113,-0.1306,-0.1273,-0.1279,-0.1286,-0.1211,-0.1211,-0.1211,-0.1211,-0.1319,-0.1373,-0.1162,-0.1012,-0.093,-0.0965,-0.0708,-0.0727,-0.0809,-0.0828,-0.0945,-0.0901,-0.0918,-0.0864,-0.088,-0.088,-0.0703,-0.0703,-0.0702,-0.1212,-0.1161,-0.0943,-0.0862,-0.0699,-0.0622,-0.0385,-0.027,-0.0484,-0.0685,-0.0893,-0.0915,-0.0862,-0.0893,-0.082,-0.0848,-0.0851,0,0]},{"header":{"parameterUnit":"m.s-1","parameterCategory":2,"la1":30.2992,"la2":30.254,"lo1":-89.0895,"lo2":-89.0443,"dy":0.0025,"dx":0.0025,"nx":19,"ny":19,"refTime":"2026-04-23T03:00:00:Z","depth":"0","parameterNumber":3,"parameterNumberName":"V-component_of_CURRENTS"},"data":[0,0,0,-0.0242,-0.0241,-0.015,-0.015,-0.0014,-0.0013,0,0,0,0,0,0,0,0,0,0,0,-0.0272,-0.0272,-0.0243,-0.0241,-0.015,-0.015,-0.0015,-0.0013,0,0,0,0,0,0,0,0,0,0,0,-0.0272,-0.0272,-0.0271,-0.0241,-0.0151,-0.015,-0.0015,-0.0085,0,0,0,0,0,0,0,0,0,0,-0.0174,-0.022,-0.0272,-0.0271,-0.024,-0.0151,-0.015,-0.0089,-0.0081,-0.0054,0,-0.0045,0,-0.0031,-0.0005,-0.0004,0,0,0,-0.0228,-0.0227,-0.0193,-0.0271,-0.0239,-0.0151,-0.0188,-0.0084,-0.0075,-0.0043,-0.0043,-0.0038,-0.0029,-0.0004,-0.0003,0.0078,0.0078,0,0,-0.0234,-0.026,-0.02,-0.0188,-0.0222,-0.0191,-0.0185,-0.0079,-0.0077,-0.0043,-0.0035,-0.0027,-0.0003,-0.0002,0.0078,0.0078,0,0,0,-0.0256,-0.0264,-0.0234,-0.0194,-0.0182,-0.0188,-0.0182,-0.0082,-0.007,-0.0034,-0.0025,-0.0003,-0.0001,0.0078,0.0078,0.0028,0,0,0,-0.0259,-0.0278,-0.0236,-0.0252,-0.0184,-0.0136,-0.0188,-0.0077,-0.0065,-0.0026,-0.0003,0.0,0.0078,0.0078,0.0029,0.0025,0,0,0,-0.0275,-0.028,-0.0269,-0.0253,-0.0219,-0.0138,-0.0119,-0.0074,-0.006,-0.0004,0.0001,0.0078,0.0078,0.0031,0.0027,0.0098,0,0,0,-0.0304,-0.0297,-0.027,-0.0259,-0.022,-0.0173,-0.012,-0.0077,-0.0035,-0.0002,0.0078,0.0078,0.0031,0.0028,0.0097,0.0249,0.0262,0,0,-0.0311,-0.0299,-0.0291,-0.0264,-0.0239,-0.0184,-0.0151,-0.0074,-0.0025,0.0047,0.005,0.0029,0.0027,0.0097,0.0243,0.0256,0,0,0,-0.0303,-0.0303,-0.0288,-0.0268,-0.0223,-0.0183,-0.0116,-0.0077,-0.0011,-0.0002,0.0041,0.0042,0.0089,0.0179,0.019,0.0326,0.0078,0.0078,0.0078,-0.0354,-0.0326,-0.0314,-0.0277,-0.0248,-0.018,-0.0136,-0.0071,-0.003,-0.0011,0.0009,0.0039,0.0132,0.0143,0.028,0.001,0.0009,0.0009,0.0009,-0.0375,-0.0371,-0.0337,-0.0314,-0.0267,-0.0232,-0.0144,-0.0108,-0.0015,-0.0014,0.0034,0.013,0.0152,0.0294,0.0006,0.0007,0.0007,0.0007,0.0007,-0.0425,-0.0416,-0.0394,-0.0329,-0.0281,-0.0213,-0.0093,-0.0083,-0.0041,-0.0013,0.0162,0.0165,0.0291,0.0033,0.0033,0.0033,0.0033,0.0034,0.0034,-0.0478,-0.0456,-0.0364,-0.031,-0.0214,-0.0114,-0.0035,0.0029,0.0102,0.0148,0.015,0.0333,0.0048,0.0048,0.0038,0.0037,0.0037,0.0036,0.0036,-0.046,-0.0428,-0.0295,-0.0181,0.0036,0.0211,0.0224,0.0362,0.0397,0.0467,0.0532,0.0262,0.0315,0.0309,0.0317,0.0377,0.0377,0.0377,0.0377,-0.0392,-0.0393,-0.0165,0.0036,0.0243,0.0388,0.0676,0.0772,0.0809,0.0838,0.0745,0.0765,0.0745,0.0823,0.0805,0.0822,0.1009,0.101,0.1011,-0.0252,-0.0227,-0.0045,0.009,0.0342,0.0595,0.0858,0.1057,0.1101,0.1043,0.0904,0.0877,0.0905,0.0863,0.0979,0.0943,0.097,0,0]}],[{"header":{"parameterUnit":"m.s-1","parameterCategory":2,"la1":30.2992,"la2":30.254,"lo1":-89.0895,"lo2":-89.0443,"dy":0.0025,"dx":0.0025,"nx":19,"ny":19,"refTime":"2026-04-23T03:00:00:Z","depth":"2","parameterNumber":2,"parameterNumberName":"U-component_of_CURRENTS"},"data":[0,0,0,-0.1751,-0.1749,-0.1673,-0.1673,-0.1568,-0.1567,0,0,0,0,0,0,0,0,0,0,0,-0.1773,-0.1772,-0.1751,-0.1749,-0.1673,-0.1673,-0.1568,-0.1567,0,0,0,0,0,0,0,0,0,0,0,-0.1773,-0.1773,-0.1772,-0.1749,-0.1673,-0.1673,-0.1568,-0.1626,0,0,0,0,0,0,0,0,0,0,-0.17,-0.1721,-0.1773,-0.1772,-0.1748,-0.1673,-0.1673,-0.1629,-0.1623,-0.1602,0,-0.1589,0,-0.1579,-0.156,-0.156,0,0,0,-0.1744,-0.1726,-0.171,-0.1772,-0.1748,-0.1673,-0.1706,-0.1626,-0.1618,-0.1593,-0.1587,-0.1583,-0.1577,-0.156,-0.1559,-0.1466,-0.1465,0,0,-0.1748,-0.1753,-0.1715,-0.1706,-0.1725,-0.1708,-0.1703,-0.1621,-0.161,-0.1587,-0.1581,-0.1575,-0.1559,-0.1558,-0.1466,-0.1466,0,0,0,-0.1763,-0.1756,-0.1742,-0.171,-0.1698,-0.1706,-0.1701,-0.1613,-0.161,-0.158,-0.1574,-0.1559,-0.1557,-0.1466,-0.1466,-0.1493,0,0,0,-0.1766,-0.1766,-0.1744,-0.1746,-0.17,-0.1655,-0.1694,-0.1615,-0.1606,-0.1575,-0.1559,-0.1556,-0.1467,-0.1466,-0.1493,-0.1505,0,0,0,-0.1777,-0.1767,-0.1759,-0.1747,-0.1717,-0.1656,-0.1647,-0.1613,-0.1602,-0.156,-0.1556,-0.1467,-0.1466,-0.1493,-0.1505,-0.1475,0,0,0,-0.1785,-0.1726,-0.1759,-0.1701,-0.1718,-0.1659,-0.1648,-0.1595,-0.1557,-0.1558,-0.1467,-0.1466,-0.1493,-0.1504,-0.1475,-0.1328,-0.1315,0,0,-0.1707,-0.1717,-0.1685,-0.1712,-0.1665,-0.167,-0.1619,-0.1568,-0.1542,-0.1493,-0.149,-0.1493,-0.1505,-0.1475,-0.129,-0.1278,0,0,0,-0.1659,-0.1647,-0.1634,-0.1624,-0.1602,-0.1606,-0.1566,-0.1552,-0.1511,-0.1518,-0.1472,-0.1478,-0.1458,-0.1369,-0.136,-0.1463,-0.1463,-0.1463,-0.1463,-0.1548,-0.1574,-0.1549,-0.1579,-0.1559,-0.1552,-0.154,-0.1517,-0.1493,-0.1482,-0.1485,-0.146,-0.1365,-0.1356,-0.1466,-0.1466,-0.1466,-0.1466,-0.1466,-0.1487,-0.149,-0.1538,-0.1535,-0.1561,-0.1541,-0.1523,-0.1517,-0.1485,-0.1484,-0.1463,-0.1383,-0.1347,-0.1468,-0.1467,-0.1467,-0.1467,-0.1467,-0.1467,-0.1451,-0.1461,-0.1492,-0.1534,-0.1552,-0.156,-0.1522,-0.1531,-0.15,-0.1492,-0.1358,-0.1356,-0.1475,-0.147,-0.147,-0.147,-0.147,-0.147,-0.147,-0.141,-0.1441,-0.1424,-0.1537,-0.1503,-0.1531,-0.1534,-0.1479,-0.14,-0.1365,-0.1363,-0.146,-0.146,-0.1473,-0.1469,-0.1469,-0.1469,-0.1469,-0.1469,-0.1332,-0.1361,-0.1319,-0.1293,-0.1329,-0.1352,-0.1376,-0.1305,-0.1257,-0.1187,-0.1273,-0.1278,-0.1248,-0.1253,-0.1259,-0.12,-0.12,-0.12,-0.12,-0.1235,-0.1277,-0.1127,-0.1074,-0.111,-0.1232,-0.1097,-0.1098,-0.1113,-0.1106,-0.1111,-0.1091,-0.1101,-0.1064,-0.1074,-0.1077,-0.0971,-0.0971,-0.0971,-0.1125,-0.1103,-0.0955,-0.1003,-0.1024,-0.1103,-0.1036,-0.088,-0.0821,-0.0972,-0.1177,-0.1164,-0.1145,-0.1159,-0.111,-0.1122,-0.1131,0,0]},{"header":{"parameterUnit":"m.s-1","parameterCategory":2,"la1":30.2992,"la2":30.254,"lo1":-89.0895,"lo2":-89.0443,"dy":0.0025,"dx":0.0025,"nx":19,"ny":19,"refTime":"2026-04-23T03:00:00:Z","depth":"2","parameterNumber":3,"parameterNumberName":"V-component_of_CURRENTS"},"data":[0,0,0,-0.0312,-0.031,-0.0219,-0.0218,-0.0084,-0.0083,0,0,0,0,0,0,0,0,0,0,0,-0.0343,-0.0342,-0.0312,-0.031,-0.0219,-0.0218,-0.0084,-0.0083,0,0,0,0,0,0,0,0,0,0,0,-0.0343,-0.0342,-0.0342,-0.031,-0.0219,-0.0218,-0.0085,-0.0156,0,0,0,0,0,0,0,0,0,0,-0.0246,-0.0292,-0.0343,-0.0342,-0.031,-0.0219,-0.0218,-0.0159,-0.0151,-0.0124,0,-0.0113,0,-0.0098,-0.0075,-0.0074,0,0,0,-0.0301,-0.0298,-0.0263,-0.0342,-0.0309,-0.0219,-0.0258,-0.0155,-0.0146,-0.0113,-0.0111,-0.0106,-0.0096,-0.0074,-0.0073,0.0018,0.0018,0,0,-0.0306,-0.0333,-0.027,-0.0258,-0.0289,-0.0261,-0.0255,-0.015,-0.0148,-0.0111,-0.0103,-0.0094,-0.0073,-0.0072,0.0018,0.0018,0,0,0,-0.0327,-0.0337,-0.0304,-0.0264,-0.025,-0.0258,-0.0252,-0.0152,-0.0139,-0.0101,-0.0092,-0.0072,-0.0071,0.0018,0.0018,-0.0033,0,0,0,-0.033,-0.0349,-0.0307,-0.0323,-0.0252,-0.0205,-0.0257,-0.0146,-0.0134,-0.0093,-0.0072,-0.0069,0.0018,0.0018,-0.0031,-0.004,0,0,0,-0.0346,-0.0351,-0.0339,-0.0324,-0.0287,-0.0207,-0.0187,-0.0143,-0.0128,-0.0074,-0.0069,0.0018,0.0018,-0.003,-0.0038,0.0018,0,0,0,-0.0377,-0.0366,-0.034,-0.0324,-0.0288,-0.0237,-0.0188,-0.0144,-0.0103,-0.0072,0.0018,0.0018,-0.003,-0.0037,0.0018,0.0119,0.0128,0,0,-0.0379,-0.0367,-0.0356,-0.0331,-0.0299,-0.0248,-0.0211,-0.0138,-0.009,-0.0014,-0.0012,-0.0032,-0.0038,0.0018,0.0124,0.0133,0,0,0,-0.0367,-0.0364,-0.0348,-0.0325,-0.0278,-0.024,-0.0174,-0.0137,-0.007,-0.0065,-0.0016,-0.0017,0.002,0.0081,0.0087,0.0018,0.0018,0.0018,0.0018,-0.0412,-0.0382,-0.037,-0.0331,-0.0299,-0.0231,-0.019,-0.0125,-0.0084,-0.0064,-0.0048,-0.0024,0.0039,0.0046,-0.0041,-0.0041,-0.0041,-0.0041,-0.0041,-0.0434,-0.0437,-0.0396,-0.0374,-0.0324,-0.0286,-0.0195,-0.016,-0.0073,-0.0067,-0.0028,0.0038,0.005,-0.0045,-0.0044,-0.0044,-0.0043,-0.0043,-0.0043,-0.049,-0.0486,-0.0463,-0.0417,-0.0365,-0.0292,-0.0208,-0.0164,-0.0104,-0.008,0.0053,0.0055,-0.0029,-0.0042,-0.0042,-0.0041,-0.0041,-0.0041,-0.0041,-0.0561,-0.0537,-0.0528,-0.0441,-0.0401,-0.0303,-0.0193,-0.0126,-0.0021,0.003,0.0032,-0.0022,-0.0022,-0.0026,-0.0038,-0.0039,-0.0039,-0.0039,-0.0039,-0.0594,-0.0582,-0.0604,-0.0566,-0.0477,-0.0457,-0.0234,-0.0055,0.0093,0.0162,0.0118,0.0113,0.0157,0.0154,0.0156,0.0192,0.0192,0.0192,0.0192,-0.0599,-0.0601,-0.0673,-0.0726,-0.0679,-0.0598,-0.0466,-0.0206,0.0028,0.0086,0.0089,0.0068,0.0064,0.01,0.0098,0.0097,0.0117,0.0117,0.0116,-0.0559,-0.065,-0.0701,-0.0858,-0.0873,-0.0826,-0.0806,-0.0483,-0.0066,0.0098,-0.0077,0.0217,0.0196,0.0185,0.0251,0.0243,0.0247,0,0]}],[{"header":{"parameterUnit":"m.s-1","parameterCategory":2,"la1":30.2992,"la2":30.254,"lo1":-89.0895,"lo2":-89.0443,"dy":0.0025,"dx":0.0025,"nx":19,"ny":19,"refTime":"2026-04-23T03:00:00:Z","depth":"4","parameterNumber":2,"parameterNumberName":"U-component_of_CURRENTS"},"data":[0,0,0,-0.112,-0.1124,-0.1255,-0.1255,-0.1267,-0.1267,0,0,0,0,0,0,0,0,0,0,0,-0.1077,-0.1079,-0.112,-0.1124,-0.1255,-0.1255,-0.1267,-0.1267,0,0,0,0,0,0,0,0,0,0,0,-0.1077,-0.1079,-0.1081,-0.1125,-0.1254,-0.1255,-0.1267,-0.1201,0,0,0,0,0,0,0,0,0,0,-0.1091,-0.1079,-0.1078,-0.1081,-0.1126,-0.1254,-0.1255,-0.1199,-0.1205,-0.1171,0,-0.122,0,-0.1251,-0.1266,-0.1266,0,0,0,-0.11,-0.1074,-0.1118,-0.1081,-0.1127,-0.1254,-0.1189,-0.1204,-0.121,-0.1178,-0.1221,-0.1223,-0.1251,-0.1266,-0.1266,-0.1252,-0.1252,0,0,-0.1093,-0.1082,-0.1115,-0.1124,-0.1196,-0.1185,-0.1193,-0.1209,-0.1221,-0.1221,-0.1224,-0.1252,-0.1266,-0.1266,-0.1252,-0.1252,0,0,0,-0.1088,-0.1077,-0.1123,-0.1122,-0.1163,-0.1189,-0.1199,-0.122,-0.124,-0.1224,-0.1252,-0.1266,-0.1266,-0.1252,-0.1252,-0.1275,0,0,0,-0.1083,-0.1076,-0.112,-0.1112,-0.1164,-0.1214,-0.1209,-0.1239,-0.1242,-0.1252,-0.1266,-0.1266,-0.1252,-0.1252,-0.1274,-0.1284,0,0,0,-0.1065,-0.1074,-0.1102,-0.1112,-0.1181,-0.1215,-0.1235,-0.1241,-0.1259,-0.1266,-0.1266,-0.1252,-0.1252,-0.1274,-0.1283,-0.1252,0,0,0,-0.1028,-0.1077,-0.1103,-0.1154,-0.118,-0.1231,-0.1236,-0.1266,-0.1275,-0.1266,-0.1252,-0.1252,-0.1274,-0.1283,-0.1253,-0.1121,0,0,0,-0.106,-0.1081,-0.1105,-0.1131,-0.1181,-0.1209,-0.124,-0.1258,-0.1254,-0.1232,-0.1233,-0.1274,-0.1283,-0.1252,-0.1108,0,0,0,0,-0.1093,-0.1116,-0.1134,-0.1176,-0.1213,-0.1242,-0.1266,-0.1268,-0.1271,-0.1266,-0.1263,-0.1267,-0.1247,-0.1171,-0.1251,-0.1251,-0.1251,-0.1251,-0.1251,-0.1101,-0.1121,-0.1158,-0.1191,-0.1221,-0.1257,-0.127,-0.1274,-0.1271,-0.1274,-0.1278,-0.1259,-0.1179,-0.1267,-0.1268,-0.1268,-0.1268,-0.1268,-0.1268,-0.1117,-0.1117,-0.1165,-0.1207,-0.1238,-0.1266,-0.1283,-0.1289,-0.1276,-0.1284,-0.1262,-0.119,-0.127,-0.1269,-0.1269,-0.1269,-0.1269,-0.1269,-0.1269,-0.1085,-0.1083,-0.1136,-0.117,-0.1228,-0.1268,-0.1279,-0.13,-0.1292,-0.1284,-0.1171,-0.1259,-0.1265,-0.1266,-0.1266,-0.1266,-0.1266,-0.1266,-0.1266,-0.1,-0.1052,-0.1044,-0.1116,-0.1145,-0.1197,-0.1264,-0.1255,-0.1262,-0.1174,-0.1283,-0.1258,-0.1258,-0.1263,-0.1264,-0.1265,-0.1265,-0.1265,-0.1265,-0.0871,-0.0897,-0.0896,-0.0917,-0.0984,-0.1038,-0.115,-0.1142,-0.1097,-0.1041,-0.1096,-0.1105,-0.1077,-0.1081,-0.108,-0.1026,-0.1024,-0.1023,0,-0.0736,-0.0762,-0.0741,-0.0761,-0.0779,-0.0928,-0.0886,-0.0929,-0.0948,-0.0911,-0.1061,-0.1121,-0.1127,-0.1096,-0.1097,-0.1094,0,0,0,-0.0582,-0.0637,-0.0583,-0.0665,-0.0699,-0.0765,-0.0873,-0.0842,-0.0964,-0.0922,-0.0979,-0.0991,-0.1178,-0.126,-0.1237,-0.1237,-0.1244,0,0]},{"header":{"parameterUnit":"m.s-1","parameterCategory":2,"la1":30.2992,"la2":30.254,"lo1":-89.0895,"lo2":-89.0443,"dy":0.0025,"dx":0.0025,"nx":19,"ny":19,"refTime":"2026-04-23T03:00:00:Z","depth":"4","parameterNumber":3,"parameterNumberName":"V-component_of_CURRENTS"},"data":[0,0,0,-0.0257,-0.0256,-0.0205,-0.0205,-0.0088,-0.0087,0,0,0,0,0,0,0,0,0,0,0,-0.0278,-0.0278,-0.0257,-0.0256,-0.0205,-0.0205,-0.0088,-0.0087,0,0,0,0,0,0,0,0,0,0,0,-0.0278,-0.0278,-0.0278,-0.0256,-0.0205,-0.0204,-0.0089,-0.0138,0,0,0,0,0,0,0,0,0,0,-0.0193,-0.0228,-0.0278,-0.0278,-0.0256,-0.0205,-0.0204,-0.0141,-0.0135,-0.0099,0,-0.01,0,-0.0091,-0.0079,-0.0078,0,0,0,-0.0248,-0.0233,-0.0215,-0.0278,-0.0255,-0.0205,-0.0226,-0.0138,-0.0131,-0.0091,-0.0098,-0.0094,-0.0089,-0.0078,-0.0077,0.0028,0.0028,0,0,-0.0251,-0.0268,-0.022,-0.0211,-0.0251,-0.0227,-0.0224,-0.0134,-0.0132,-0.0098,-0.0091,-0.0087,-0.0077,-0.0076,0.0027,0.0028,0,0,0,-0.0264,-0.027,-0.0255,-0.0215,-0.021,-0.0226,-0.0222,-0.0136,-0.0131,-0.009,-0.0085,-0.0076,-0.0075,0.0027,0.0027,-0.0018,0,0,0,-0.0266,-0.0278,-0.0256,-0.0266,-0.0213,-0.0181,-0.0227,-0.0137,-0.0127,-0.0086,-0.0076,-0.0074,0.0027,0.0027,-0.0017,-0.0038,0,0,0,-0.0279,-0.0279,-0.0276,-0.0267,-0.0247,-0.0182,-0.0171,-0.0135,-0.0123,-0.0078,-0.0073,0.0027,0.0027,-0.0016,-0.0037,-0.0021,0,0,0,-0.0294,-0.0291,-0.0277,-0.0267,-0.0248,-0.0205,-0.0172,-0.0137,-0.0102,-0.0076,0.0027,0.0027,-0.0016,-0.0036,-0.0021,-0.0146,0,0,0,-0.0296,-0.0291,-0.0283,-0.0269,-0.024,-0.0211,-0.0172,-0.0118,-0.0078,0.0002,0.0004,-0.0017,-0.0037,-0.0021,-0.0112,0,0,0,0,-0.0287,-0.0285,-0.0272,-0.0253,-0.0218,-0.019,-0.0137,-0.0108,-0.0051,-0.0056,0.0007,-0.0004,0.0007,-0.0063,0.003,0.003,0.003,0.003,0.003,-0.032,-0.0293,-0.0286,-0.0252,-0.0221,-0.0167,-0.0139,-0.0086,-0.0047,-0.003,-0.0023,-0.0019,-0.0094,-0.0001,-0.0001,-0.0001,-0.0001,-0.0001,-0.0002,-0.0351,-0.0363,-0.0314,-0.0305,-0.0259,-0.0224,-0.0137,-0.011,-0.0049,-0.0031,-0.0017,-0.0085,-0.0005,-0.0005,-0.0004,-0.0004,-0.0003,-0.0003,-0.0003,-0.0403,-0.0411,-0.0398,-0.0409,-0.0374,-0.0304,-0.0284,-0.0189,-0.0092,-0.008,-0.0125,-0.0034,-0.0049,-0.0066,-0.0066,-0.0066,-0.0066,-0.0066,-0.0066,-0.0493,-0.0474,-0.0533,-0.0533,-0.0552,-0.053,-0.039,-0.0321,-0.0182,-0.0181,-0.0085,-0.0039,-0.0037,-0.005,-0.0066,-0.0066,-0.0066,-0.0066,-0.0066,-0.0601,-0.0615,-0.0684,-0.0731,-0.0771,-0.0743,-0.0631,-0.0432,-0.0375,-0.0294,-0.0222,-0.0214,-0.0203,-0.0196,-0.0215,-0.028,-0.0282,-0.0283,0,-0.0707,-0.0712,-0.0787,-0.0844,-0.0907,-0.0831,-0.0804,-0.0657,-0.0422,-0.0444,-0.0327,-0.0251,-0.0244,-0.0235,-0.0232,-0.0257,0,0,0,-0.0821,-0.0796,-0.0852,-0.0854,-0.0906,-0.083,-0.0765,-0.0689,-0.0534,-0.042,-0.0325,-0.0314,-0.0197,-0.0068,-0.0031,-0.0028,-0.0047,0,0]}]]